GFSGBSN_sfc_thetae_000.txt.gz
Theta_e
312 312 312 312 312 312 311 311 311 311 312 312 312 313 313 313 313 313 313 312 311 313 313 313 314 316 309 299 295 303 324 318 321 317 307 307 311 308 302 304 307 303 306 309 309 308 309
310 311 310 310 310 310 310 310 310 311 312 312 312 312 312 312 312 313 313 313 312 311 311 313 313 315 305 292 305 303 309 305 306 314 309 305 305 311 304 304 304 306 307 308 308 309 310
310 310 310 309 310 310 309 308 310 311 311 311 312 311 311 311 311 312 313 313 313 312 311 311 313 310 302 298 310 311 309 303 302 310 309 309 307 304 301 297 301 301 298 300 302 304 304
309 308 309 309 308 308 307 308 310 310 310 310 311 312 311 311 311 311 312 313 313 312 312 311 312 306 295 308 310 308 309 306 307 301 306 313 312 304 298 300 298 295 295 291 299 303 304
307 307 307 307 307 307 306 308 309 309 310 310 311 312 311 311 311 311 312 312 312 312 312 310 305 301 293 309 304 308 308 302 303 299 299 306 308 301 298 296 293 291 289 290 294 301 300
307 307 307 307 307 306 307 308 308 308 310 310 311 311 311 310 311 311 311 310 309 309 307 307 305 294 299 295 303 305 307 306 299 296 296 297 298 295 292 292 287 287 288 291 292 297 299
308 307 307 307 306 307 307 308 308 309 309 310 310 311 311 310 310 311 307 297 294 296 300 293 294 294 296 303 307 304 303 302 299 296 290 294 292 290 293 296 295 293 291 290 293 298 298
307 307 307 308 308 307 308 308 308 308 309 310 311 311 310 310 311 310 301 292 299 298 290 298 298 299 302 303 296 301 304 294 294 290 293 294 290 295 298 297 295 293 290 290 295 300 298
307 307 307 307 307 307 307 307 307 308 309 310 311 310 310 310 310 299 294 297 304 300 290 294 297 296 297 300 296 295 302 296 293 290 292 289 292 298 297 295 293 292 291 291 291 298 299
306 306 307 307 308 308 307 308 308 308 309 310 311 310 310 310 299 295 296 299 304 303 284 286 291 295 298 297 292 300 303 298 292 289 291 290 295 295 296 295 296 291 297 296 295 294 287
306 306 307 308 308 308 308 308 309 309 310 310 310 310 310 309 300 296 298 300 302 299 272 286 291 301 299 292 294 294 301 299 293 289 291 288 292 292 293 296 299 294 300 297 297 293 288
306 307 307 308 308 308 308 308 309 310 310 310 310 310 309 302 299 299 301 300 297 281 273 285 292 290 289 294 295 297 297 299 300 291 291 291 295 295 295 298 299 299 295 294 292 289 284
307 307 307 308 308 308 308 308 309 310 309 310 310 309 306 305 293 298 299 294 279 274 287 284 286 289 288 288 290 292 291 290 289 286 285 289 289 294 296 292 296 295 289 281 279 279 282
307 306 307 308 308 308 308 308 309 309 309 309 308 306 304 303 299 300 294 286 274 281 282 289 288 287 286 289 288 290 290 287 292 290 288 284 282 290 296 293 291 293 291 282 278 280 285
307 307 306 307 308 308 308 308 308 308 308 308 305 298 297 298 301 300 288 278 277 282 287 285 286 283 285 287 287 288 287 289 291 292 286 286 286 294 296 297 296 292 287 293 287 289 284
307 307 307 308 308 308 308 308 309 309 308 307 299 297 293 301 302 300 286 279 282 288 288 287 280 284 280 283 284 284 286 292 290 294 294 288 284 292 294 296 297 292 295 286 287 279 279
308 308 308 308 308 308 308 308 308 308 307 305 292 286 294 302 301 292 281 281 285 289 290 286 284 283 283 283 285 283 285 292 290 290 294 288 287 288 292 290 289 288 288 287 289 285 282
307 308 308 308 308 308 308 308 308 308 306 301 293 280 295 300 289 286 282 286 290 288 290 288 288 286 284 286 284 284 284 287 291 291 287 291 285 284 288 292 296 295 291 290 286 283 287
307 307 307 308 308 308 308 308 308 308 306 298 289 288 294 297 281 281 285 285 288 287 287 286 285 287 287 285 282 285 286 291 292 290 289 290 284 281 284 288 290 291 292 293 288 287 286
305 305 305 306 307 307 307 308 308 308 307 293 290 281 285 289 290 286 284 282 283 290 288 288 286 286 285 285 287 285 286 290 293 292 298 291 285 284 283 285 289 287 291 292 289 284 286
304 304 304 305 305 306 307 308 308 307 306 293 286 282 286 282 280 284 285 282 282 283 288 288 285 286 285 283 284 285 288 290 291 294 292 286 281 287 289 292 291 291 291 291 289 291 288
304 304 304 304 305 305 305 307 307 307 305 291 285 288 288 287 288 285 283 280 283 284 286 285 284 286 285 283 284 283 287 288 287 291 289 287 281 285 286 292 293 290 291 292 292 292 292
304 304 304 304 304 305 305 306 307 307 303 295 296 296 291 287 284 283 283 284 284 286 287 289 287 284 283 286 290 290 291 293 291 289 288 284 283 282 279 287 289 285 291 291 292 294 294
304 304 304 304 304 304 305 306 306 307 306 300 297 295 289 283 286 285 286 287 285 286 285 288 288 284 288 292 292 292 291 292 293 292 292 287 286 285 279 285 279 289 298 296 295 296 297
303 303 304 303 304 304 305 306 306 307 307 301 299 296 291 283 287 287 287 287 287 288 286 286 288 290 290 289 285 283 286 287 289 292 293 293 290 283 279 280 288 293 294 292 292 293 295
303 303 303 303 304 305 306 306 307 307 307 301 300 300 295 287 284 290 287 289 286 286 287 286 290 291 290 285 284 275 279 283 283 287 292 292 290 284 282 279 280 289 294 299 299 289 295
303 303 303 304 304 305 306 307 307 307 308 302 298 298 296 289 290 289 288 287 291 290 287 285 286 288 288 282 273 274 279 287 280 281 283 285 287 280 280 278 288 294 296 299 288 287 295
303 303 304 304 304 304 305 307 307 308 309 303 299 295 298 291 290 293 293 289 291 291 287 288 287 288 286 281 283 284 285 286 284 287 286 285 283 286 286 284 285 297 295 289 293 295 296
302 302 303 304 304 304 305 307 307 308 309 306 296 296 301 295 292 294 296 297 295 295 292 291 286 289 288 287 287 287 285 286 286 282 291 285 288 286 288 288 295 298 297 300 300 295 296

GFSGBSN_sfc_thetae_003.txt.gz
Theta_e
310 310 310 310 310 309 309 309 310 310 311 312 312 312 312 312 312 312 313 313 314 313 313 311 313 313 310 301 299 306 317 316 318 319 308 309 311 309 305 308 310 309 311 313 314 315 314
308 309 309 309 309 308 308 308 309 310 310 311 311 312 312 312 311 311 311 312 313 313 313 313 311 313 304 292 309 311 311 310 306 314 309 307 310 312 308 309 308 310 311 311 313 313 314
308 307 308 308 307 307 307 307 308 309 309 310 311 311 311 311 311 312 312 312 312 313 313 312 312 308 300 297 309 311 310 309 308 305 306 309 309 310 310 306 312 311 307 310 311 311 311
308 307 307 307 307 307 307 308 308 308 309 310 311 311 311 311 311 311 312 312 312 312 313 313 313 306 296 308 311 309 311 309 311 310 307 307 312 307 305 307 303 301 302 297 304 306 307
308 307 307 307 307 306 307 308 308 309 310 310 310 311 311 311 311 311 311 312 311 311 312 312 305 302 293 308 303 309 310 305 307 308 307 305 309 307 304 300 298 299 295 296 299 306 305
308 308 308 308 308 308 308 308 308 308 309 310 311 311 312 311 311 311 311 310 309 310 309 308 305 296 298 296 304 306 310 309 304 301 300 300 302 299 300 298 291 294 294 297 297 302 303
308 308 309 308 308 308 308 308 307 308 309 310 310 311 311 311 311 310 308 303 300 299 300 296 296 295 297 302 305 301 307 305 304 299 294 298 295 293 296 299 300 299 298 297 301 303 300
307 307 308 308 308 308 308 308 308 308 309 310 310 310 310 310 310 310 304 298 298 298 291 298 298 298 301 302 295 298 304 298 297 293 297 294 292 298 300 299 297 297 296 296 299 300 300
306 307 308 308 308 308 308 309 309 310 310 310 311 311 310 310 310 303 300 299 305 304 291 294 298 297 298 300 295 295 301 298 294 293 294 293 295 298 297 296 295 296 295 295 295 299 301
307 308 308 308 309 309 308 309 308 309 310 310 310 310 310 310 302 301 298 303 305 304 286 287 292 296 298 298 292 301 301 298 295 292 294 294 299 296 295 295 297 292 299 298 296 295 291
307 308 308 309 309 309 308 308 309 309 310 310 310 310 310 309 301 297 300 305 305 300 273 288 293 303 299 294 296 297 302 298 293 293 295 292 294 295 293 295 299 295 300 298 298 296 296
307 307 307 308 308 308 308 309 309 309 310 310 310 309 308 304 303 303 305 304 301 284 273 285 292 291 290 293 295 298 296 299 299 295 295 295 299 297 297 299 300 301 299 299 299 296 289
307 307 306 307 309 309 308 308 309 309 309 309 309 307 305 304 297 304 305 299 283 276 287 284 286 289 288 289 291 293 292 290 288 288 288 292 293 297 298 296 300 300 297 288 286 287 286
308 308 307 308 309 309 308 309 309 309 309 309 308 306 304 305 306 306 301 289 275 281 283 289 288 288 284 289 289 290 289 289 292 293 292 287 285 293 298 297 296 297 296 290 284 286 289
308 309 309 309 309 308 308 308 308 308 308 307 306 303 302 305 305 304 293 279 279 282 286 286 286 283 284 287 287 287 287 290 292 293 289 289 289 296 298 299 299 296 293 299 292 294 290
307 307 308 309 309 309 308 308 309 309 308 307 299 298 300 306 306 300 289 281 284 289 289 288 281 284 281 283 285 285 284 291 289 294 295 292 289 295 296 299 299 297 300 291 292 284 283
306 306 307 308 308 308 308 308 308 308 307 305 298 293 302 303 304 291 283 284 286 291 291 286 284 283 284 283 286 284 284 288 290 291 294 294 292 293 295 294 293 294 294 295 296 293 287
305 305 305 305 306 307 307 308 308 308 306 302 297 288 300 304 290 288 284 286 290 289 292 289 289 287 285 286 284 284 284 286 292 291 288 295 293 289 292 298 300 298 296 296 290 289 292
303 304 304 305 306 306 306 307 307 308 307 300 291 289 300 301 283 283 286 286 288 288 288 288 287 288 289 286 282 286 287 291 292 291 290 294 291 287 289 294 297 295 297 298 298 298 291
304 303 304 305 305 306 305 306 307 307 307 300 292 285 292 296 292 285 283 284 284 291 289 290 288 290 288 286 289 285 287 290 292 292 297 295 290 290 288 291 295 292 294 297 297 292 292
304 304 304 304 305 305 305 305 306 306 307 299 293 288 290 284 286 286 285 284 284 284 289 290 287 287 285 283 285 286 288 290 292 293 293 292 286 289 292 293 296 294 294 294 294 295 291
303 304 304 304 304 305 305 306 306 306 305 298 291 289 292 289 289 286 286 284 284 286 286 285 286 287 287 283 284 283 287 288 287 291 291 293 287 289 289 293 295 293 295 295 295 295 295
303 303 304 304 304 305 305 306 307 307 305 297 298 298 292 288 286 285 285 285 285 288 289 290 289 287 286 288 291 292 292 292 292 290 290 290 289 288 287 291 293 290 295 296 296 297 297
303 303 303 304 304 304 305 306 307 308 306 301 300 296 289 284 286 286 287 289 288 288 286 289 291 288 291 296 295 294 294 292 292 293 294 289 289 290 288 292 285 295 300 300 297 297 298
303 303 303 304 304 304 305 307 307 308 307 303 303 296 291 285 287 287 288 288 289 291 289 289 291 293 296 293 289 286 287 288 290 292 293 294 289 288 287 290 295 294 295 294 297 294 298
302 302 303 303 304 305 305 306 308 308 308 304 303 302 296 288 288 290 288 289 287 287 288 290 295 296 296 291 288 281 279 283 283 288 292 292 292 288 289 287 286 292 297 300 302 293 299
303 303 303 303 304 305 305 306 307 308 308 306 305 304 297 290 293 292 287 288 291 290 288 291 292 292 294 288 283 283 283 287 281 281 284 287 288 285 287 287 289 296 299 302 294 292 300
303 303 303 304 304 305 305 306 307 308 309 306 303 302 299 293 293 295 295 292 292 292 288 292 291 292 291 286 285 285 284 286 285 287 287 287 287 286 289 287 285 298 297 292 296 301 301
302 302 303 303 304 304 305 306 307 308 309 307 301 302 303 295 294 300 299 300 298 297 293 293 291 291 294 288 289 288 286 286 285 283 290 286 289 287 288 288 296 300 298 301 301 300 300

GFSGBSN_sfc_thetae_006.txt.gz
Theta_e
309 309 310 309 309 308 308 308 309 310 310 310 310 311 312 312 312 312 312 312 313 313 313 314 313 312 311 304 303 314 323 322 313 319 312 312 311 311 309 311 311 312 314 317 317 318 317
309 309 309 309 308 308 308 308 308 309 309 310 311 312 312 312 312 312 312 313 313 312 312 313 313 312 307 296 310 313 314 313 312 313 314 313 310 314 313 312 310 312 313 314 316 316 317
308 308 308 308 307 307 307 308 308 309 310 310 311 311 312 312 312 312 312 312 312 313 313 313 313 311 304 301 310 312 311 311 312 310 310 312 314 313 314 310 315 312 308 311 312 314 313
309 308 309 308 308 309 309 309 309 310 310 310 311 311 312 312 312 312 312 312 312 312 312 313 313 309 299 308 312 309 311 311 312 313 310 311 312 310 312 314 311 308 309 304 311 313 314
309 309 309 309 308 309 309 309 309 309 310 310 311 312 311 312 311 312 312 312 312 312 312 312 309 305 298 310 304 308 311 307 309 311 312 310 308 307 307 302 302 305 300 303 307 313 311
308 308 308 308 309 308 308 309 309 309 310 310 311 311 312 311 311 311 311 311 311 311 312 312 308 299 302 297 304 308 310 311 307 307 306 305 304 302 303 301 295 299 300 302 303 309 309
308 308 309 309 309 309 309 309 310 310 310 311 311 311 311 312 311 310 309 308 304 303 303 299 298 299 299 304 305 303 306 307 307 304 298 302 297 296 300 303 304 303 303 303 306 309 307
307 308 309 309 310 309 309 310 309 309 310 310 310 310 310 311 311 311 309 301 301 302 294 300 300 300 302 303 297 301 306 299 301 297 300 299 295 301 303 304 302 302 301 302 306 308 307
308 309 309 309 309 310 309 309 310 310 310 311 311 310 310 310 310 309 304 303 308 307 294 296 299 298 300 302 298 299 302 299 297 297 298 296 298 302 301 301 300 300 300 300 300 305 307
308 308 308 309 309 309 309 309 309 310 310 310 310 310 310 309 305 307 302 306 308 308 288 290 294 299 301 301 296 304 304 299 298 295 297 297 302 301 300 299 301 297 302 301 300 299 295
308 308 307 308 309 309 309 309 309 309 310 310 310 309 308 308 305 302 304 308 308 304 277 290 295 306 301 296 297 299 305 301 293 296 298 295 298 298 298 299 302 299 302 301 301 299 299
308 308 308 308 309 309 309 309 309 310 310 310 309 309 307 307 305 306 308 308 304 287 277 287 294 293 293 295 295 298 300 303 300 294 298 298 303 301 301 303 303 304 301 301 301 299 292
309 309 309 309 310 309 309 309 310 310 309 310 309 308 307 308 301 308 308 302 286 279 289 286 288 292 291 290 291 294 293 294 292 287 288 296 297 301 302 300 303 302 299 293 291 291 291
308 308 309 309 309 309 309 309 309 309 309 308 308 306 305 309 309 308 304 292 278 283 284 290 289 290 286 289 290 291 291 290 296 293 291 289 289 297 301 300 298 299 299 293 287 289 293
306 307 307 307 308 308 308 308 308 308 308 307 306 311 310 309 309 307 295 283 283 285 288 287 288 285 286 288 288 289 289 289 295 296 288 290 292 300 301 302 303 299 297 303 296 297 294
306 306 306 306 307 307 307 307 308 308 308 307 304 304 304 309 310 300 288 284 287 291 291 290 284 286 283 285 286 288 287 289 289 296 298 294 291 299 299 302 303 303 304 295 297 289 288
305 304 305 306 306 307 306 307 307 308 307 306 304 298 305 310 307 298 286 286 289 293 293 289 287 286 286 286 287 287 284 289 290 293 297 297 295 296 299 297 297 299 299 300 300 297 291
305 304 304 305 306 306 306 306 306 307 306 304 300 293 305 308 294 293 287 289 292 292 294 292 292 289 287 288 287 286 286 289 292 295 290 297 296 292 295 300 303 302 300 301 294 293 295
304 305 305 304 306 306 306 306 306 306 306 302 295 296 306 305 286 285 288 289 291 291 291 291 289 291 292 289 285 288 290 293 293 292 291 297 294 290 293 297 300 299 300 301 302 302 296
304 304 305 305 304 306 306 306 306 306 306 304 297 291 296 300 295 289 287 287 288 293 291 292 291 292 290 288 290 287 288 292 294 292 295 297 295 294 291 294 298 296 298 300 301 296 296
303 304 304 304 304 305 306 307 306 306 306 304 297 292 294 289 290 290 289 288 285 286 291 293 289 289 288 285 287 285 287 289 293 293 295 294 292 295 297 297 298 298 298 299 298 300 296
303 303 304 304 304 305 306 307 307 307 306 300 294 291 294 292 292 290 289 288 287 289 289 289 288 289 290 287 288 285 288 289 288 294 294 297 293 296 293 297 297 296 298 299 300 300 300
304 303 303 304 305 305 305 306 307 307 306 301 299 301 294 291 289 287 288 288 289 291 292 293 292 290 289 291 294 295 296 295 293 291 291 292 292 293 290 296 296 293 298 299 300 302 302
304 303 303 304 305 305 305 306 307 308 306 307 305 302 291 288 288 288 288 290 289 291 288 293 293 290 294 300 300 299 296 295 295 293 295 290 289 295 291 295 287 299 304 305 301 301 303
303 303 303 303 304 305 306 306 307 308 308 306 307 301 292 287 290 290 289 289 292 294 292 292 294 296 301 296 292 288 288 290 291 293 292 294 290 291 292 291 297 298 300 301 302 298 304
302 303 303 303 304 305 306 307 307 308 309 306 307 307 300 289 292 294 290 291 290 291 292 293 300 303 300 295 291 283 281 286 286 288 294 295 295 289 294 289 288 296 301 305 306 297 304
303 302 303 303 303 304 305 306 307 308 309 307 307 309 300 291 296 295 290 290 293 292 288 293 296 296 300 292 287 285 285 290 285 284 288 290 290 290 292 293 294 299 302 306 297 297 305
303 303 303 303 303 304 305 305 306 308 309 308 306 309 300 295 296 299 297 293 293 293 288 294 293 296 294 289 288 286 286 288 288 289 288 288 288 290 293 290 287 302 301 298 299 305 305
302 302 303 303 304 304 305 305 306 307 308 308 303 308 307 296 297 304 303 304 302 300 295 294 292 290 295 292 291 290 287 290 288 285 293 288 289 289 289 290 300 303 302 305 305 305 305

GFSGBSN_sfc_thetae_009.txt.gz
Theta_e
310 310 309 309 309 308 308 308 309 310 310 311 312 312 312 313 313 313 313 313 313 313 313 313 314 314 311 305 306 317 324 324 318 317 318 311 309 312 311 313 314 312 314 317 318 319 319
309 309 309 309 308 309 309 309 310 311 311 312 311 311 312 313 313 313 314 313 313 313 313 313 313 313 309 298 313 314 314 315 315 315 316 314 312 314 313 314 313 315 315 315 316 316 318
309 310 310 310 309 310 310 310 310 310 310 311 311 312 312 312 313 312 313 313 313 313 312 313 314 312 305 302 311 312 312 311 313 313 311 315 317 313 314 311 316 315 311 314 314 315 314
310 310 309 309 310 310 310 310 310 310 310 311 312 312 312 312 312 312 312 313 313 312 313 313 313 311 302 310 312 308 310 309 311 313 313 315 316 314 312 315 313 310 311 305 312 314 314
309 309 310 310 310 310 310 310 311 311 311 312 312 312 311 312 312 312 312 312 312 312 313 314 311 307 299 312 306 309 310 305 308 311 313 313 312 308 310 306 304 308 302 305 308 314 313
309 309 310 310 310 310 310 310 310 310 310 311 312 312 312 311 311 312 312 311 312 312 312 314 311 303 305 300 304 308 311 308 306 308 308 307 307 303 303 303 296 300 302 304 304 310 312
309 310 310 310 310 309 309 310 310 310 311 311 311 311 311 311 311 311 310 310 307 305 309 303 301 301 302 305 307 304 306 305 307 305 300 305 300 297 300 303 305 305 304 304 307 312 309
309 309 310 309 309 309 310 310 310 310 311 311 311 310 311 311 311 311 311 303 303 304 296 303 302 302 304 305 298 301 306 299 300 297 301 300 297 302 304 304 303 303 302 303 307 310 308
309 308 309 309 309 310 310 310 310 311 311 311 311 310 310 310 310 309 306 305 310 308 296 298 301 300 301 303 299 300 303 300 296 295 298 296 300 304 302 302 301 302 301 302 303 308 309
309 308 308 309 310 310 310 310 310 310 310 311 311 311 310 309 305 307 304 308 310 309 290 292 296 299 302 303 298 306 306 302 297 293 297 299 302 301 301 299 301 298 305 305 304 303 298
310 309 310 310 311 310 310 310 310 310 310 310 310 310 310 308 306 303 306 310 310 305 278 293 295 307 302 298 299 300 307 303 294 294 295 294 298 299 299 300 303 301 306 305 304 302 301
308 309 309 310 310 310 309 309 310 310 310 310 310 309 308 309 309 308 310 309 304 287 279 289 296 294 295 297 297 299 301 305 302 296 296 296 302 302 301 303 304 305 303 304 304 302 295
307 307 307 308 309 309 308 308 309 309 309 309 309 308 307 310 303 311 310 303 286 281 291 287 289 293 292 291 293 294 293 294 294 289 289 293 296 302 304 300 304 304 301 294 292 293 293
306 306 307 307 307 308 307 307 308 308 308 309 308 306 307 310 312 310 306 292 281 287 287 292 291 291 288 291 291 291 292 290 294 294 292 288 286 296 302 301 299 301 301 295 289 291 295
305 305 306 307 307 307 306 306 307 307 307 307 306 311 306 310 312 310 299 284 284 288 291 289 290 287 288 290 291 290 290 289 294 295 290 290 289 299 301 303 303 300 298 304 299 301 297
306 305 305 306 307 307 307 305 307 307 307 306 307 306 306 311 313 305 295 286 288 292 293 292 285 289 285 287 288 289 289 293 292 295 298 295 289 297 301 303 303 302 305 297 300 292 291
305 305 305 306 306 307 307 307 307 307 307 306 307 301 307 311 310 298 289 289 291 294 294 290 288 288 288 287 288 288 288 292 294 294 298 297 294 295 299 298 297 300 299 301 302 300 294
305 305 305 305 306 306 307 307 307 307 305 306 304 295 307 310 295 297 291 292 293 293 295 293 293 292 289 289 288 289 288 291 295 296 292 298 294 292 295 302 304 303 302 302 297 296 299
304 305 305 306 306 306 306 307 307 307 306 305 300 300 308 305 290 289 293 292 293 292 292 291 290 292 294 290 286 290 291 293 296 293 290 295 292 287 293 299 301 299 302 304 304 305 298
305 305 305 305 306 306 306 306 307 307 307 304 300 295 301 302 297 291 290 291 289 295 293 293 292 293 291 289 292 287 289 291 294 294 296 295 293 291 290 295 299 297 300 303 303 299 299
304 304 304 305 305 306 305 306 307 307 307 305 302 296 297 292 293 291 292 291 289 289 294 295 292 290 290 287 289 286 289 292 294 296 293 294 290 292 294 300 299 299 300 301 301 302 299
304 304 304 305 305 306 307 306 306 307 307 303 297 294 298 293 294 291 292 291 289 291 292 290 290 292 292 289 289 288 291 292 290 294 292 296 291 293 290 296 299 297 300 301 301 303 303
305 305 305 304 305 305 307 307 307 307 307 303 304 301 298 293 292 290 291 290 290 292 294 294 293 293 291 293 296 297 297 296 294 292 291 292 294 290 286 296 298 295 299 301 302 304 304
304 304 304 305 305 305 306 307 307 308 307 307 305 302 296 290 292 291 293 292 291 293 291 295 296 293 296 302 301 301 299 297 296 295 297 293 290 291 289 293 288 300 307 304 303 305 307
303 303 303 304 304 305 306 307 307 308 308 306 309 302 297 291 294 293 294 294 295 296 294 295 297 299 303 299 292 291 291 291 293 295 296 298 291 290 288 289 298 299 305 304 302 303 308
303 303 303 304 304 304 305 306 307 308 309 307 307 309 301 294 294 296 294 294 291 292 295 296 302 304 302 296 292 283 284 287 287 289 298 296 295 291 292 288 288 299 304 308 310 299 308
304 303 303 303 303 304 305 306 306 307 308 308 306 314 302 294 298 297 293 292 295 293 291 295 297 297 300 294 288 286 285 292 286 286 289 291 293 292 291 292 292 301 306 309 297 297 308
305 305 304 304 303 304 304 305 306 307 307 308 307 312 302 296 299 301 300 296 296 295 289 296 294 297 295 290 289 288 288 289 289 290 289 288 290 291 294 291 287 303 305 300 304 309 309
305 305 305 305 304 304 304 305 305 306 307 307 305 310 308 297 299 305 306 306 303 302 296 295 293 292 296 291 292 291 288 290 288 285 294 288 290 289 291 289 300 303 304 309 309 308 308

GFSGBSN_sfc_thetae_012.txt.gz
Theta_e
310 311 311 310 310 310 310 311 311 311 311 311 312 312 313 313 313 314 313 313 314 314 313 313 313 314 310 300 302 315 331 326 316 316 314 311 307 305 304 310 313 310 312 314 316 317 317
311 311 311 310 311 310 310 310 310 311 311 312 312 312 312 312 313 313 314 314 314 314 313 313 313 313 307 295 311 313 314 313 313 312 312 315 312 310 307 308 309 314 313 313 315 315 316
310 311 311 311 311 311 311 311 311 312 313 313 313 313 312 312 312 313 314 313 313 313 312 313 314 311 303 300 310 311 310 310 311 312 309 313 315 311 310 306 311 311 309 312 313 314 314
310 311 311 311 311 311 311 311 311 311 311 312 313 312 313 312 313 313 313 313 312 312 313 313 314 310 298 308 310 308 309 308 309 309 309 312 313 310 309 311 308 306 307 303 310 312 314
310 311 311 311 311 310 310 310 311 311 311 311 312 312 311 311 311 312 312 312 313 313 314 314 310 306 298 313 305 309 309 305 306 308 309 311 310 307 308 303 301 304 300 302 306 312 312
310 310 311 310 310 311 310 310 310 311 311 311 312 312 312 311 311 312 311 311 312 313 313 314 312 302 306 302 306 308 311 309 305 305 304 304 304 300 302 300 294 297 299 302 303 309 311
310 310 310 310 310 310 310 310 311 311 311 311 311 312 311 311 312 311 309 310 303 302 307 303 304 303 304 306 307 304 306 304 303 302 297 301 297 295 298 301 301 302 301 300 305 309 308
309 309 309 310 310 310 311 311 310 311 311 311 311 311 311 311 311 310 308 304 303 304 295 302 302 302 304 304 298 301 306 298 297 293 299 297 295 301 302 302 301 300 299 300 305 307 307
310 310 310 310 310 310 310 311 310 311 311 311 311 311 311 311 310 308 306 305 309 307 295 297 300 300 301 302 298 298 302 299 294 292 294 294 296 302 301 299 299 299 298 299 299 304 307
309 310 309 310 310 310 309 309 309 310 310 311 310 310 310 310 305 307 303 308 309 308 289 292 295 299 301 302 297 304 305 301 296 292 293 294 299 298 299 298 300 296 302 301 301 300 296
308 308 308 309 309 309 309 308 308 309 310 310 310 310 310 308 307 304 306 310 309 304 277 294 296 306 303 298 300 300 307 302 294 295 294 291 293 295 295 298 301 298 303 302 302 300 300
307 307 308 309 309 308 308 308 308 309 309 309 309 310 309 310 309 309 310 309 305 286 278 290 296 294 295 297 298 300 301 304 302 297 296 294 298 296 298 301 301 304 301 301 301 300 294
306 306 306 307 308 308 307 306 307 308 308 308 309 308 307 310 304 311 310 303 286 280 292 287 288 292 292 291 293 294 294 294 292 288 289 293 293 296 298 296 301 300 299 292 290 291 291
306 306 306 307 307 307 307 306 307 307 307 308 307 306 311 311 311 310 305 293 279 286 286 292 291 291 289 291 291 291 291 289 294 294 290 287 287 293 298 296 296 298 299 293 286 288 292
306 306 306 307 307 307 307 307 306 307 307 307 305 312 310 311 312 310 298 285 283 287 290 289 290 288 288 290 291 291 290 289 292 295 288 287 289 298 297 299 299 297 294 301 296 298 294
305 306 306 306 307 307 307 307 307 307 307 306 305 307 307 312 313 306 294 287 289 292 292 291 285 287 284 288 287 288 289 293 292 296 297 292 286 295 299 298 300 299 302 294 297 289 290
306 306 306 307 307 307 307 307 307 308 307 305 306 301 309 311 311 301 289 289 291 294 294 290 288 287 288 287 289 288 288 293 295 294 296 294 290 290 297 295 293 297 296 298 301 298 292
306 306 306 306 307 307 307 307 307 307 306 306 305 296 309 310 296 298 291 292 294 293 296 293 292 291 288 289 288 288 288 290 294 297 291 295 291 288 291 299 299 301 298 299 295 294 298
306 305 306 306 307 307 307 306 307 307 306 304 301 301 309 307 291 291 294 292 294 293 294 292 291 293 293 289 286 290 290 295 295 294 291 292 291 286 289 295 300 297 299 301 303 303 298
306 306 306 306 306 307 307 307 307 307 307 305 302 294 299 301 299 293 290 290 290 295 294 294 293 294 292 290 292 288 290 293 295 294 296 295 289 288 286 291 295 295 297 300 301 296 299
305 305 306 306 306 306 307 307 307 306 307 306 303 296 299 291 293 293 293 292 290 289 294 295 292 291 290 287 288 288 291 293 294 296 294 291 287 290 290 292 293 295 298 299 300 302 298
305 304 305 306 306 306 306 307 307 307 307 305 297 296 298 294 296 293 293 291 290 291 292 291 290 292 292 289 290 288 291 291 290 295 293 294 286 291 288 290 292 292 298 299 301 302 303
305 305 305 305 306 306 306 307 307 307 307 303 304 304 297 295 294 292 292 292 292 294 294 295 294 292 291 293 296 297 297 296 295 293 291 291 291 289 284 290 290 290 298 300 301 305 305
306 305 305 305 305 305 306 307 307 308 308 305 303 305 296 291 293 292 294 294 293 294 292 295 297 294 297 302 300 300 298 298 296 295 296 291 290 290 287 289 284 298 305 305 302 306 308
306 306 306 305 304 305 306 306 307 307 308 306 306 305 298 292 293 294 294 294 295 296 294 295 297 300 303 299 292 290 291 292 294 296 295 296 292 287 286 288 294 299 304 303 301 302 309
306 306 306 306 305 304 305 306 307 307 308 306 306 308 304 294 294 297 294 295 291 292 292 296 300 304 302 295 290 285 282 286 286 291 298 295 295 288 288 285 288 293 304 310 310 297 309
307 306 306 306 306 306 305 305 305 306 307 306 306 313 304 295 299 299 295 294 296 295 292 295 297 297 301 294 288 286 285 291 286 286 288 289 291 287 287 286 291 299 304 310 296 297 309
306 306 306 306 306 306 307 305 305 306 306 305 305 311 307 297 299 301 301 298 298 296 288 294 293 295 294 289 289 289 287 290 288 290 289 286 286 288 291 286 284 301 305 299 305 310 310
306 306 306 306 306 306 307 307 306 305 306 306 300 311 312 298 299 306 306 307 306 304 297 296 292 292 293 290 291 291 289 290 287 285 293 286 290 289 291 288 296 302 302 306 308 307 308

GFSGBSN_sfc_thetae_015.txt.gz
Theta_e
311 311 311 312 311 311 311 312 312 312 312 312 313 313 313 312 313 313 313 314 314 314 313 313 313 313 308 298 298 308 332 329 317 311 306 304 300 298 296 299 305 307 309 310 312 312 312
312 312 312 312 312 311 311 311 311 312 312 312 312 312 312 312 312 312 313 314 314 313 313 313 313 313 303 291 306 307 308 312 312 309 308 307 304 305 301 299 300 303 308 310 311 310 311
312 312 312 312 312 311 311 311 311 312 313 313 313 313 312 312 312 312 313 313 312 313 312 313 313 310 301 297 306 306 305 303 304 305 305 308 309 308 305 300 304 303 300 303 307 309 309
311 311 311 311 311 310 311 311 311 311 311 312 312 312 312 312 312 312 313 312 312 312 312 313 314 307 295 306 307 305 305 303 305 305 304 305 305 302 300 303 303 300 300 295 302 305 308
311 311 311 310 310 310 311 311 311 311 311 311 312 312 311 311 312 312 312 312 313 313 314 314 307 302 294 311 304 306 306 302 303 304 303 306 302 298 300 296 294 296 292 294 298 305 305
310 309 310 310 311 311 311 311 311 311 311 311 312 311 312 312 311 312 311 311 311 313 311 311 309 300 302 300 306 307 308 307 304 301 300 298 295 294 294 293 287 291 293 296 296 302 304
310 310 311 311 311 311 310 310 310 310 311 311 311 311 311 311 311 310 308 302 299 298 303 298 299 301 302 308 311 304 307 303 301 298 291 295 289 288 292 295 297 296 296 295 299 304 302
310 311 310 310 310 310 310 309 309 309 310 310 310 310 311 311 311 310 305 299 300 298 291 299 299 299 302 304 298 301 304 296 294 289 293 291 288 293 297 297 297 296 293 293 298 303 301
309 309 309 309 309 309 308 309 309 309 309 310 310 310 311 311 310 306 301 302 307 303 291 294 298 298 298 300 296 296 300 297 292 289 289 287 292 298 296 295 294 294 293 293 294 299 300
307 307 308 309 309 309 308 308 308 308 309 309 309 309 310 310 304 304 300 305 305 304 283 289 296 298 299 298 293 301 302 297 293 289 290 288 293 294 294 293 295 290 298 298 297 295 289
307 307 307 308 309 309 308 307 307 307 309 309 309 309 310 308 301 301 303 307 305 298 274 293 295 306 301 295 298 299 303 298 292 292 291 287 289 289 289 293 297 293 300 297 297 294 292
307 307 307 308 308 308 308 308 308 308 308 308 308 309 309 307 303 305 306 306 302 285 276 288 294 292 291 294 296 298 299 301 300 293 293 292 296 293 291 294 296 298 296 296 295 292 286
306 307 307 308 308 308 307 307 308 308 308 308 308 308 306 307 300 306 304 299 284 277 290 286 287 291 291 290 292 293 292 292 288 286 286 292 293 294 296 290 293 293 290 283 283 284 284
306 306 307 307 307 308 307 307 307 308 308 308 307 306 307 309 307 305 300 289 276 285 286 290 289 291 287 290 290 291 290 286 291 291 285 284 283 292 297 291 288 288 290 284 278 281 285
305 306 306 306 307 307 307 307 307 307 307 307 306 306 305 307 308 305 293 283 280 286 290 288 288 285 285 288 289 289 288 288 291 292 286 285 285 295 295 296 293 288 285 294 287 290 287
305 305 306 306 307 307 307 307 307 307 307 306 301 301 303 308 308 301 289 285 288 292 292 290 283 287 282 285 286 286 286 292 290 294 295 289 282 291 293 295 295 292 293 286 288 281 280
307 306 306 307 307 307 308 308 307 307 306 305 300 298 305 308 307 296 282 286 290 293 294 290 287 285 286 286 286 285 287 291 292 292 292 291 286 286 291 289 288 290 287 289 289 288 284
306 306 307 306 307 307 307 307 307 307 305 303 300 293 305 305 292 292 285 290 294 292 295 293 292 289 287 288 286 286 286 290 295 293 287 291 287 284 286 293 296 294 291 290 285 286 289
306 306 306 307 307 307 307 307 307 307 306 300 295 298 306 303 284 286 291 290 292 292 292 291 289 292 290 288 284 288 289 294 295 293 291 290 284 280 283 288 293 292 295 293 291 292 288
306 306 306 306 307 306 306 307 307 307 307 302 297 291 296 298 295 290 288 289 289 295 291 292 290 291 289 287 289 287 289 293 295 294 297 294 286 283 279 286 290 288 291 294 292 288 290
305 305 306 306 306 306 306 307 307 307 306 303 298 292 294 286 289 291 291 290 289 288 293 293 290 290 288 285 286 285 289 291 294 296 294 291 285 287 288 291 290 289 289 290 290 293 290
306 306 306 306 306 306 306 306 307 307 306 301 295 293 295 292 293 291 292 289 289 291 291 290 288 291 291 286 287 285 288 288 288 292 292 292 285 288 286 291 290 288 290 290 291 294 295
307 307 307 307 306 306 306 306 307 307 306 300 300 301 297 293 291 289 289 291 291 292 293 294 293 290 290 292 295 293 294 293 292 290 288 289 285 286 283 289 288 284 287 290 293 296 297
307 307 307 307 307 307 306 306 307 307 307 303 300 299 294 288 291 291 292 293 291 292 291 294 294 292 296 299 299 297 296 295 294 293 293 287 286 288 285 287 277 288 296 297 295 301 303
307 307 308 307 307 307 307 306 306 306 307 302 302 300 296 289 292 293 293 292 294 294 292 293 295 297 299 297 290 286 288 289 292 294 294 293 290 285 283 284 288 294 297 297 298 300 307
306 306 306 307 307 307 307 307 307 306 306 303 301 304 300 293 291 296 293 294 290 291 291 293 297 299 297 293 287 285 280 286 285 290 296 294 293 288 287 281 284 292 297 300 302 295 308
306 306 306 306 307 307 307 308 307 306 306 303 300 302 301 293 297 297 292 292 296 294 290 292 293 293 295 287 282 281 283 290 284 284 288 288 288 285 285 283 287 295 296 299 293 296 308
306 305 306 305 306 307 307 307 307 307 305 303 299 302 298 296 297 299 300 295 295 295 290 293 290 291 289 283 285 285 284 287 286 289 287 285 285 286 288 284 281 295 296 297 303 308 307
306 304 305 305 305 305 306 307 307 308 307 305 297 303 309 300 298 303 303 303 302 301 296 294 292 292 293 288 286 286 287 288 287 282 292 285 288 287 289 287 295 297 298 305 308 305 305

GFSGBSN_sfc_thetae_018.txt.gz
Theta_e
312 313 313 313 312 311 311 311 312 312 312 312 312 313 313 312 312 313 313 313 313 313 313 313 313 313 307 297 297 303 320 314 313 315 309 305 299 297 293 296 299 300 307 311 310 310 312
312 312 312 312 311 311 311 311 311 312 312 313 312 312 312 312 312 313 313 313 313 313 312 312 313 312 301 290 303 306 306 305 305 303 303 301 300 300 297 297 296 299 300 302 306 308 309
312 312 311 311 311 311 311 312 312 311 312 313 313 312 312 312 312 313 313 313 312 313 312 313 313 309 300 295 306 304 302 299 302 301 299 305 305 302 300 297 302 301 297 299 301 301 303
310 310 311 311 311 311 311 311 311 311 311 311 312 312 311 311 311 312 313 312 312 312 313 314 313 307 296 306 306 305 304 303 304 303 302 303 302 297 296 301 300 296 295 291 299 301 303
310 310 311 312 311 311 310 311 311 310 310 310 312 312 311 311 311 311 312 312 312 313 314 313 306 302 294 310 304 306 304 300 302 302 301 305 299 295 295 292 290 293 290 291 295 301 301
310 310 310 311 310 311 310 309 309 310 310 310 311 311 311 311 311 311 311 310 311 312 312 311 309 299 301 298 305 309 306 304 300 300 299 296 293 290 289 289 285 288 290 293 293 298 300
309 310 309 309 309 308 308 308 308 309 309 309 309 310 310 311 311 311 308 301 297 293 297 295 295 299 301 304 308 305 307 303 301 297 288 292 286 285 289 291 293 294 293 293 295 300 299
308 308 308 308 308 308 308 309 308 308 309 309 309 309 310 311 311 311 304 297 298 297 289 298 298 297 300 300 294 298 304 295 293 288 291 288 285 290 293 293 293 292 290 290 295 298 297
308 308 308 308 307 308 307 308 309 309 309 309 309 309 310 310 310 304 300 300 304 300 289 293 300 299 297 299 294 295 299 296 291 288 288 285 288 294 293 291 290 291 289 290 291 296 298
307 308 308 307 308 308 307 307 307 308 309 309 309 309 309 309 302 300 298 304 303 299 282 289 294 297 301 298 293 300 301 296 291 287 288 286 291 289 288 289 291 287 294 295 294 292 286
307 307 307 308 308 308 308 308 307 308 308 309 309 309 309 308 299 297 303 301 302 295 273 291 294 303 299 294 296 299 302 296 290 289 288 285 288 287 287 289 294 289 296 294 294 290 288
306 307 307 307 307 307 308 308 308 308 308 308 308 309 308 303 299 302 304 301 299 282 272 287 294 292 292 294 295 297 298 301 300 291 291 289 294 291 289 292 292 294 292 292 292 288 282
306 306 306 307 308 308 308 308 308 308 308 308 308 308 306 305 297 303 300 295 280 274 289 286 287 290 290 289 291 293 291 291 288 285 284 289 291 296 296 289 292 289 283 278 278 279 281
306 306 307 307 308 308 308 308 308 308 307 308 307 306 304 305 303 302 296 286 275 284 285 291 290 289 286 289 289 290 288 286 292 291 284 283 280 290 296 291 286 285 283 279 275 277 282
306 306 306 306 307 307 307 307 307 307 307 306 306 298 300 303 304 300 290 276 277 286 289 288 288 284 284 288 289 288 287 286 290 290 284 282 283 294 294 294 291 286 283 286 282 286 282
306 306 306 306 307 307 307 307 307 308 307 306 298 295 298 304 303 297 285 283 286 291 292 291 282 286 281 284 285 285 286 291 290 292 292 288 281 290 292 294 292 289 291 282 281 277 276
306 306 306 307 307 307 307 307 307 307 307 305 295 294 301 304 302 291 278 283 289 293 294 289 287 285 285 285 286 284 287 290 293 292 291 288 285 285 291 287 285 286 285 285 285 283 279
306 306 306 306 307 307 307 306 307 307 306 299 293 289 302 301 288 286 281 289 294 292 295 292 290 289 287 287 285 285 286 290 294 293 287 289 285 281 284 291 293 290 287 287 279 280 285
307 306 306 307 307 307 306 306 307 307 306 299 291 291 301 301 281 279 287 290 292 291 291 289 288 291 290 286 282 287 289 294 295 292 288 289 282 277 280 286 291 288 291 292 288 286 283
307 307 308 308 307 307 306 306 307 307 306 301 291 286 290 291 290 285 285 288 288 295 293 293 290 291 289 286 288 285 287 292 294 294 296 294 284 281 276 282 287 285 289 290 288 283 285
307 307 307 307 308 308 307 306 307 306 306 299 291 287 289 285 288 288 288 289 288 288 293 293 290 290 288 284 285 283 287 290 293 296 294 290 282 285 286 287 288 288 288 289 287 288 285
307 307 308 307 307 307 307 306 306 306 306 296 289 289 293 291 289 288 288 287 289 290 290 289 288 290 290 287 288 286 288 287 286 291 289 291 284 287 283 288 288 287 289 289 290 289 289
307 307 308 308 308 307 307 308 306 306 304 291 293 294 292 291 290 289 288 290 290 292 293 293 292 289 289 290 294 294 294 293 290 288 287 287 286 284 279 288 288 282 287 288 289 293 293
306 306 307 307 307 308 308 308 307 306 305 297 293 297 292 286 289 289 291 292 290 292 290 293 293 289 294 297 297 296 293 293 292 291 292 286 284 286 281 286 276 290 298 299 292 294 300
308 307 306 306 307 307 308 308 308 307 306 295 294 297 294 287 290 291 292 291 292 293 291 291 293 295 297 292 288 286 287 290 291 293 292 291 286 283 281 282 287 293 295 294 294 295 305
308 307 307 306 306 306 307 308 308 308 306 297 294 295 295 291 287 293 290 293 289 290 291 292 295 297 293 288 285 281 281 286 285 287 294 293 291 285 285 279 278 286 294 297 297 293 305
307 307 307 306 305 306 307 307 307 308 308 302 297 294 295 290 293 295 290 290 293 293 289 292 292 290 290 283 276 279 279 289 283 283 286 285 287 284 283 278 285 289 294 297 291 293 307
306 306 305 305 305 305 306 307 307 308 308 303 295 297 294 291 293 295 296 293 293 292 289 293 291 289 286 282 282 282 285 288 286 288 285 285 284 285 286 281 280 295 294 296 299 305 308
305 304 304 303 304 305 305 306 307 307 308 307 297 297 298 295 295 298 299 300 299 299 294 295 292 291 292 288 287 287 285 289 286 282 291 284 286 286 287 285 291 297 299 302 303 303 306

GFSGBSN_sfc_thetae_021.txt.gz
Theta_e
313 312 312 311 311 311 310 311 312 312 312 312 312 312 312 312 312 312 313 313 313 313 313 313 312 311 306 295 295 301 314 310 305 313 310 307 300 297 292 294 298 299 305 309 311 309 309
311 311 311 311 311 310 310 310 311 312 312 312 312 311 312 312 312 312 313 313 313 312 312 312 312 311 300 289 302 304 304 303 301 299 297 305 299 299 296 295 297 297 298 301 302 303 306
310 311 311 311 312 311 311 310 310 310 310 310 311 311 311 311 312 311 313 312 312 312 312 313 312 308 299 295 305 304 302 300 301 300 296 299 305 300 297 294 299 298 294 297 298 298 299
310 311 311 310 310 310 310 310 309 309 309 310 310 311 310 311 311 311 312 312 312 313 314 314 312 305 295 306 305 304 304 302 303 302 300 301 300 296 294 298 297 294 294 291 298 300 301
309 310 310 309 309 308 308 308 308 309 309 309 310 311 310 310 310 311 312 312 312 314 314 314 304 300 294 309 304 307 306 300 300 301 300 304 298 293 294 291 288 290 287 288 292 299 299
308 308 309 308 308 307 307 308 308 308 308 309 309 310 310 310 311 311 311 311 311 310 312 311 308 296 298 294 300 303 305 304 299 298 296 295 292 288 286 287 284 287 288 291 291 296 298
308 309 308 308 308 308 308 307 307 308 309 309 309 309 310 310 311 311 307 300 295 293 295 293 294 294 296 300 303 300 303 300 299 295 288 290 285 284 288 290 290 290 289 289 293 297 296
308 308 308 308 308 308 308 308 308 308 308 309 309 309 309 311 311 310 302 296 297 297 288 297 297 298 301 302 295 298 303 293 291 286 289 286 284 288 291 291 290 289 287 287 292 296 294
307 307 308 308 308 308 308 308 308 308 308 309 309 308 309 310 309 302 297 299 302 298 287 292 297 297 298 298 294 294 298 295 290 287 286 283 287 292 291 289 288 287 287 288 288 293 295
307 307 307 307 308 308 308 308 308 308 308 308 308 309 309 308 301 299 297 303 301 297 280 288 293 297 299 298 293 301 301 295 290 286 286 285 289 288 286 286 289 284 290 292 292 289 284
306 306 307 307 307 307 307 308 308 308 308 308 308 308 309 308 298 297 301 301 301 293 272 290 293 301 298 294 296 297 303 296 288 288 286 284 286 285 285 287 289 286 292 291 290 287 286
306 306 306 307 307 307 308 308 307 308 308 308 308 308 308 302 297 301 303 300 295 280 271 286 292 291 290 292 294 297 296 300 297 290 288 287 292 289 288 290 291 291 289 289 288 286 279
306 306 306 306 306 306 307 307 307 307 308 308 308 308 305 304 296 301 299 293 279 274 287 285 286 290 288 287 289 292 291 290 287 283 282 287 288 291 292 287 290 288 281 276 276 277 279
306 306 306 306 306 307 307 307 307 307 308 308 307 306 302 304 301 300 293 285 275 283 284 290 289 288 284 287 287 290 289 286 292 289 285 283 280 289 295 290 285 283 283 277 274 276 279
305 306 306 306 306 307 307 307 307 307 307 307 305 297 297 301 303 298 288 276 276 285 289 287 288 283 283 286 287 287 286 287 290 290 284 283 282 293 293 294 291 285 280 285 279 282 278
306 306 306 306 307 307 307 307 307 307 307 306 295 294 297 302 301 294 285 282 284 291 291 290 282 286 280 283 283 284 285 291 289 292 291 286 280 289 291 292 292 287 289 280 278 275 275
308 308 308 308 307 307 307 307 307 307 306 304 294 292 299 302 299 289 278 282 288 293 293 289 286 284 284 284 284 283 286 290 292 291 290 286 283 284 289 286 283 285 283 284 282 280 277
307 307 307 308 308 308 307 307 307 307 305 301 290 287 300 298 287 283 279 287 293 291 294 292 290 287 285 286 284 284 285 289 294 292 286 288 283 280 283 289 291 290 285 285 278 278 281
307 307 307 307 308 307 308 307 307 306 305 300 291 289 299 297 279 278 285 289 292 291 291 291 289 290 288 285 282 286 288 293 293 290 286 287 281 277 278 284 289 286 288 287 287 284 280
307 307 307 308 308 307 307 307 307 306 306 300 293 285 288 289 288 283 284 286 287 294 292 293 290 290 288 286 287 284 286 291 293 292 297 292 282 280 275 280 285 283 288 289 286 280 283
307 307 307 308 309 307 307 307 307 306 306 297 290 285 288 282 285 287 286 287 287 287 293 292 289 289 288 285 285 284 286 289 292 295 292 288 280 285 284 286 286 286 286 287 286 287 283
308 307 307 308 308 308 307 308 308 306 304 294 287 286 293 287 288 286 286 288 288 289 289 288 288 290 289 286 286 285 288 288 287 288 290 290 281 285 283 287 287 285 287 287 288 289 288
308 308 308 307 307 307 308 308 308 307 301 289 290 291 291 288 287 288 287 288 289 291 291 293 292 289 287 289 293 292 293 292 292 288 288 287 285 283 278 285 285 283 287 287 289 290 289
308 309 308 307 307 306 307 308 308 308 303 298 293 292 288 281 285 286 289 290 290 290 289 292 293 291 293 297 294 294 292 291 291 291 292 286 284 284 280 283 275 286 296 294 290 291 292
308 308 308 308 306 306 306 307 308 308 307 299 298 294 289 282 287 287 289 289 291 291 289 292 293 295 295 290 286 285 287 289 289 292 291 290 287 282 279 279 285 288 293 292 291 290 293
308 307 307 307 305 305 306 306 307 308 308 300 298 298 293 288 283 291 287 290 288 289 290 292 294 294 290 285 282 280 279 285 284 287 292 293 289 284 283 278 277 287 292 296 297 287 305
307 306 306 305 304 304 305 306 307 307 308 304 298 297 295 288 288 288 286 287 291 292 289 289 291 289 288 282 277 281 281 289 282 283 285 285 285 281 281 280 285 291 293 296 287 291 302
306 305 304 304 303 304 305 305 306 307 307 305 298 299 295 289 291 291 292 289 291 292 288 293 288 289 285 282 282 283 282 287 286 287 285 284 282 284 284 282 280 294 291 292 298 303 304
304 304 303 304 304 304 304 305 306 306 307 307 298 300 300 294 291 294 295 298 298 297 294 295 292 289 290 285 285 287 285 287 286 282 289 283 286 284 285 285 290 292 292 300 304 302 303

GFSGBSN_sfc_thetae_024.txt.gz
Theta_e
311 312 312 312 311 310 309 310 309 310 309 309 310 311 312 311 311 312 312 312 313 313 313 312 312 312 303 292 291 302 313 308 303 301 309 305 298 298 292 294 298 303 305 310 312 311 311
311 312 312 310 310 310 310 310 309 309 309 310 310 310 310 311 311 311 312 313 313 313 312 313 312 311 299 287 300 304 304 303 299 297 295 302 300 299 295 293 296 296 298 300 303 305 305
311 310 310 310 309 309 308 309 309 309 309 309 309 309 310 310 311 311 312 313 313 313 314 313 312 309 298 293 304 305 304 302 301 301 295 297 301 300 295 293 297 296 293 294 296 297 299
309 309 309 309 308 308 308 308 308 308 309 309 309 309 310 310 310 311 312 312 312 314 315 313 313 305 292 304 305 304 303 301 303 302 300 299 298 294 295 296 295 293 293 289 297 297 300
308 309 308 309 308 308 308 308 308 309 309 309 309 309 309 310 311 311 312 312 313 313 314 313 302 298 292 307 303 306 304 300 301 300 300 302 296 292 292 289 287 288 287 286 291 297 297
309 309 309 308 308 308 308 308 308 308 309 309 309 310 309 310 311 311 311 311 311 310 311 310 307 294 295 294 299 302 304 302 299 297 294 293 290 287 285 287 282 285 285 289 289 294 296
308 308 308 308 308 307 308 308 308 308 308 308 309 309 309 310 310 310 306 298 294 293 295 291 293 293 295 299 303 300 302 299 297 294 286 289 284 282 287 289 289 288 287 287 291 295 293
307 308 308 308 308 308 308 308 308 308 308 308 309 309 309 309 309 309 299 295 296 296 289 296 296 296 299 299 295 297 302 292 291 286 288 285 282 287 290 290 288 287 285 285 290 294 292
307 307 307 308 308 308 308 308 308 308 307 308 308 308 308 309 309 301 296 298 300 296 286 291 295 296 297 296 293 294 296 294 290 286 286 282 286 291 289 287 286 285 285 286 287 291 293
306 306 307 307 307 307 307 307 308 308 308 308 309 307 307 308 299 297 296 301 300 297 280 286 291 295 297 296 292 300 301 295 290 285 286 284 288 287 285 286 287 282 289 289 290 287 282
306 306 306 306 306 306 307 307 307 307 307 308 308 308 307 307 296 296 299 300 298 291 271 289 291 299 297 291 293 296 302 295 288 288 287 283 285 284 283 285 288 285 290 288 288 284 282
307 307 307 307 307 306 307 307 307 307 308 307 307 307 307 301 298 299 301 297 294 279 270 285 292 290 289 291 291 296 296 299 297 290 289 287 290 288 286 289 289 290 287 287 286 283 277
306 306 306 307 307 307 307 307 307 307 307 308 308 307 304 303 295 299 297 291 278 272 286 284 286 289 288 286 288 291 289 289 287 283 282 286 286 290 291 285 288 286 280 275 274 275 276
307 307 307 307 307 308 307 307 307 307 307 307 307 304 303 303 300 299 291 283 274 282 283 290 288 288 283 286 286 288 286 286 291 289 285 282 278 287 293 287 283 283 281 275 274 274 277
308 308 309 309 309 308 308 307 307 307 306 306 304 297 296 299 302 295 287 276 276 282 288 287 287 283 282 285 285 285 283 285 289 290 283 283 282 292 292 293 289 283 280 284 278 279 276
308 308 308 308 308 308 308 308 307 307 307 306 294 294 296 301 299 293 284 282 283 290 290 289 282 284 280 282 282 282 282 289 289 292 291 286 280 289 292 292 293 286 287 278 276 274 274
308 307 308 308 308 308 308 308 308 307 306 305 292 291 298 300 297 288 278 281 286 292 292 288 285 284 284 283 283 282 283 288 292 290 290 287 283 284 288 285 282 286 281 282 279 278 276
308 308 307 308 308 307 307 307 307 307 305 301 290 287 298 297 286 281 278 286 292 291 294 292 290 287 285 285 283 283 283 287 293 290 285 288 283 279 282 288 290 287 284 283 278 277 278
307 307 307 308 308 307 308 308 306 307 305 300 292 290 297 294 277 277 284 288 290 290 290 290 289 290 289 284 282 285 286 292 291 289 285 286 281 277 278 283 287 284 286 285 284 282 279
307 308 308 308 308 308 308 308 308 307 305 299 293 283 287 288 286 282 285 287 286 293 291 292 289 290 287 287 288 285 285 290 291 291 296 291 281 279 274 279 283 281 285 287 285 279 280
307 309 309 308 308 308 308 308 308 307 305 295 288 284 287 280 282 283 287 288 287 287 292 291 288 289 288 285 285 285 286 288 291 293 290 288 282 282 284 285 285 284 284 285 283 285 281
307 309 309 309 308 307 307 307 308 308 303 292 283 283 286 283 285 284 286 285 287 289 289 287 287 289 290 286 287 284 287 288 287 290 288 287 283 283 282 285 285 283 285 286 286 286 286
307 308 309 309 308 307 307 307 308 308 300 290 291 288 287 284 282 280 282 286 287 289 291 292 291 289 288 290 293 292 293 292 291 290 287 287 282 280 276 284 284 278 284 285 286 288 287
308 309 309 309 308 306 306 307 307 308 303 298 295 293 288 281 282 283 286 287 285 288 287 291 291 290 293 296 293 292 291 291 291 290 292 288 285 283 275 279 270 283 292 293 290 290 291
308 308 308 307 307 305 305 305 306 307 307 299 298 294 290 285 285 285 287 287 288 290 290 291 292 294 292 288 286 284 284 289 290 287 290 291 287 281 276 274 281 286 291 291 289 287 292
307 307 306 305 304 305 305 305 305 306 307 302 299 299 293 287 284 289 285 285 283 287 289 291 294 293 289 283 280 279 279 284 283 287 289 290 290 283 281 275 273 287 293 296 296 284 300
306 305 304 304 304 304 304 305 305 306 306 305 299 299 295 288 290 288 287 283 288 288 287 291 292 289 288 282 279 278 279 287 283 283 284 285 285 281 281 278 282 291 293 294 285 285 301
304 303 303 303 303 303 304 304 306 306 306 304 301 299 296 290 291 294 292 288 287 289 287 289 289 285 285 282 283 282 281 284 285 287 284 284 282 282 283 279 277 292 290 288 295 301 303
303 303 303 303 303 303 303 304 304 305 306 306 298 301 300 293 292 297 297 298 295 294 292 293 292 290 291 286 284 287 284 286 285 282 288 282 284 283 284 284 290 289 288 293 294 293 304

GFSGBSN_sfc_thetae_027.txt.gz
Theta_e
311 311 311 311 310 309 309 309 309 309 309 309 310 310 311 311 311 312 312 313 313 314 313 313 312 313 305 297 295 303 313 310 307 305 301 307 301 300 298 301 303 305 307 311 312 313 311
310 310 310 309 309 308 309 309 309 309 309 310 310 310 311 311 311 311 312 313 313 313 313 314 313 312 301 292 302 306 307 308 305 304 301 301 305 301 299 300 300 304 305 307 311 313 314
309 309 309 309 309 309 309 309 309 309 309 310 310 310 310 311 311 311 312 313 313 313 315 313 313 309 299 297 306 308 308 307 306 304 300 302 301 304 300 296 302 301 298 301 302 307 309
309 309 309 309 309 309 309 309 309 309 309 309 309 310 310 310 311 311 312 313 313 314 315 314 313 306 297 306 310 308 309 306 307 306 303 304 301 297 299 302 299 296 297 293 301 301 303
309 309 309 309 309 309 308 309 309 308 309 309 308 310 309 310 311 311 312 312 313 313 315 314 307 303 296 309 303 306 309 302 304 304 303 303 299 295 297 294 293 295 291 293 296 303 302
308 309 309 309 309 308 308 309 309 309 308 308 309 310 309 309 310 311 311 311 312 314 313 310 308 298 300 297 302 304 307 306 301 300 298 296 295 293 293 292 286 289 290 293 294 299 300
308 308 308 308 309 308 308 308 308 309 309 308 308 309 309 308 310 310 308 305 300 299 300 295 296 295 297 302 305 302 305 301 300 298 291 294 289 286 291 293 294 293 292 292 296 300 299
307 307 308 308 308 307 307 308 308 308 308 308 308 309 308 308 309 309 305 300 300 301 293 299 299 298 300 301 296 300 303 295 294 291 293 291 286 291 293 293 292 292 290 290 294 297 296
307 307 307 307 307 307 307 307 307 308 308 308 307 308 308 308 308 305 302 302 305 302 293 294 297 296 299 300 295 296 300 296 292 290 291 288 290 292 291 290 290 291 290 291 290 294 297
307 307 307 307 308 308 307 308 307 308 307 307 307 307 308 307 303 303 301 305 306 303 287 288 293 296 299 299 293 300 303 298 293 289 290 289 293 290 290 289 291 287 292 292 292 291 288
307 307 307 308 308 308 308 308 308 308 307 307 307 308 307 306 302 301 303 306 303 299 275 290 293 302 299 294 295 296 303 298 291 291 292 288 288 288 288 289 291 288 293 291 291 289 289
308 308 308 308 309 309 309 308 308 308 308 308 308 308 307 304 302 304 305 303 300 285 275 286 293 292 292 293 293 296 296 300 299 293 293 291 296 292 290 291 291 293 291 291 291 289 282
309 309 309 309 309 308 308 309 309 308 308 308 308 307 305 304 301 305 303 299 285 278 288 285 287 291 290 288 289 291 290 290 289 285 285 289 290 293 293 288 292 290 287 281 280 281 280
309 308 309 309 308 308 308 308 308 308 308 307 307 303 306 306 307 306 299 290 279 283 285 291 290 290 286 289 289 289 288 286 292 289 287 283 282 289 293 290 288 289 287 282 276 278 282
308 308 308 308 308 308 307 307 307 307 307 306 304 304 304 306 306 302 295 284 282 285 289 288 289 285 285 288 288 288 287 286 290 291 284 283 283 293 294 294 293 289 285 290 284 286 283
308 308 308 308 307 308 308 307 307 308 307 306 300 301 303 305 305 301 292 285 287 290 292 291 284 287 283 286 285 286 286 290 289 293 293 287 282 290 292 294 295 291 293 284 285 278 277
308 308 308 308 308 307 307 307 307 307 307 305 300 299 304 303 303 297 287 287 289 293 293 289 287 286 287 286 286 285 285 289 292 291 293 290 286 285 290 287 286 286 288 288 288 286 281
308 309 309 308 309 309 308 308 306 307 306 303 297 294 303 303 294 289 289 289 292 292 295 292 293 290 288 287 286 286 285 289 294 294 288 292 288 283 285 291 293 290 288 290 284 283 285
308 308 309 310 309 309 308 307 307 308 306 300 293 293 303 301 288 288 289 289 291 291 291 291 290 291 292 288 284 287 288 293 294 292 290 292 286 280 282 288 291 287 289 290 290 289 285
308 308 309 310 310 309 308 307 307 308 307 302 295 290 294 295 292 288 286 287 287 293 292 293 291 292 290 287 290 287 288 292 294 293 296 294 288 284 279 282 287 285 287 289 288 285 285
307 307 309 310 310 309 308 307 307 307 306 299 292 290 292 286 287 286 287 288 287 287 293 293 289 290 289 285 286 286 289 290 292 294 294 291 284 286 287 287 288 287 286 287 286 288 284
307 308 309 309 309 309 307 307 307 307 305 296 289 289 292 288 288 288 288 287 287 289 289 287 287 289 290 287 288 285 288 288 287 292 291 291 285 287 284 287 287 284 287 288 288 288 288
308 308 309 309 308 307 306 306 306 307 304 296 294 293 292 289 287 286 287 287 287 288 290 293 290 289 288 291 293 294 295 293 292 289 289 289 287 285 280 285 285 281 286 288 289 291 290
308 308 308 307 306 305 305 306 306 307 306 299 297 295 289 286 286 288 288 289 287 289 288 291 293 291 295 298 297 295 294 292 291 291 291 288 287 286 281 283 274 286 294 293 292 294 296
308 308 307 305 305 304 305 305 305 306 307 300 299 295 290 285 288 288 289 289 290 290 289 291 295 297 299 295 288 287 289 290 291 290 287 290 288 283 280 279 283 286 291 291 291 291 297
307 307 305 304 304 303 304 304 305 306 307 304 300 300 293 287 288 290 288 289 287 288 289 292 297 300 295 291 287 281 281 285 284 288 289 290 290 285 283 278 276 289 294 296 296 287 299
306 305 303 303 304 304 304 304 304 305 306 304 302 301 296 288 292 291 288 287 290 289 287 290 293 294 294 289 282 282 281 287 283 283 285 284 285 282 281 280 284 293 294 295 284 291 302
304 303 303 303 303 302 303 304 304 304 304 305 302 301 296 291 293 294 295 290 290 289 285 292 291 293 292 287 285 285 284 285 284 287 284 284 283 283 284 281 279 293 292 288 296 301 298
302 302 301 302 301 301 301 303 303 304 304 304 299 303 302 294 293 299 299 300 298 296 291 292 293 292 294 290 289 288 285 287 286 283 288 284 284 284 285 285 292 291 288 294 298 296 297

GFSGBSN_sfc_thetae_030.txt.gz
Theta_e
310 310 310 310 310 310 310 310 310 310 310 310 310 311 312 312 312 312 313 314 314 314 314 314 315 314 311 302 299 306 313 316 311 309 304 303 305 303 301 304 306 307 310 313 314 313 312
310 310 310 310 310 310 310 310 310 310 310 310 310 310 311 311 311 312 313 314 314 314 314 315 315 313 307 295 307 310 311 311 310 308 305 304 304 307 303 302 304 307 307 309 312 312 314
310 310 310 310 310 310 310 310 310 310 309 310 310 310 310 311 311 312 312 313 313 314 315 317 314 313 305 300 309 313 312 310 310 309 304 305 305 302 305 301 305 305 302 305 307 310 310
310 310 310 310 310 310 310 310 310 310 310 310 309 309 310 310 311 311 312 313 313 314 316 316 315 311 301 309 313 311 311 309 310 310 308 308 307 302 301 306 303 299 300 297 305 307 308
309 309 309 309 310 309 309 309 309 310 310 310 310 309 309 310 310 311 312 312 313 314 315 315 312 308 298 310 305 309 310 306 308 308 308 307 305 300 300 297 296 299 293 296 299 307 305
308 308 309 309 309 308 308 309 309 309 309 309 310 309 309 309 309 310 311 311 315 315 314 313 311 303 303 299 305 307 310 308 304 304 302 301 300 296 295 294 288 292 294 296 297 303 305
308 308 308 308 308 308 308 308 309 309 309 309 309 309 309 309 309 310 311 310 306 304 304 300 299 299 300 305 307 304 307 305 303 301 296 299 294 291 293 295 296 296 296 296 299 303 302
308 309 309 309 309 308 309 309 309 309 309 309 308 308 308 309 309 310 311 304 303 305 298 303 302 302 304 305 298 301 306 299 299 294 297 295 291 296 296 295 294 295 293 295 298 302 302
308 308 308 309 309 309 309 309 309 310 310 309 308 308 308 309 309 310 308 305 311 310 298 297 300 299 300 302 297 298 302 300 297 294 294 292 294 297 294 292 291 293 292 293 294 299 301
310 310 310 310 310 310 310 310 310 310 310 309 309 308 309 308 307 310 306 309 311 310 293 292 295 299 301 301 296 302 304 300 297 293 294 293 297 294 293 291 292 288 295 295 294 294 290
310 310 310 310 310 310 309 309 309 310 310 310 309 308 308 307 309 308 308 312 311 306 282 292 295 304 301 296 297 297 304 299 294 294 295 292 294 292 291 291 294 291 295 295 294 293 293
310 310 309 310 310 310 308 309 309 309 309 309 309 308 307 308 311 311 312 312 307 290 277 289 294 294 294 295 295 297 298 301 301 296 297 296 299 296 294 295 294 296 292 292 294 292 286
309 309 309 310 310 309 308 308 309 309 308 309 308 307 307 311 307 313 312 305 290 284 291 288 290 294 293 291 293 293 293 292 291 287 288 293 294 297 297 292 295 293 289 283 282 284 283
309 309 309 309 309 309 309 308 308 308 308 308 307 305 308 312 315 313 308 296 284 287 288 293 292 293 290 292 292 293 291 290 293 293 289 286 284 292 296 293 290 290 289 283 278 281 285
309 309 309 309 309 309 308 308 307 307 307 307 305 314 313 315 314 311 301 289 288 289 291 291 292 289 289 291 292 291 290 289 292 294 287 286 286 294 296 296 294 290 286 293 285 287 286
309 309 309 310 309 309 309 308 308 307 308 306 307 310 310 312 314 308 297 288 290 293 294 293 286 290 287 289 289 289 289 291 291 294 296 291 285 292 293 296 296 294 293 285 286 278 280
309 309 309 310 310 310 309 309 308 308 307 305 308 303 308 311 311 302 292 291 292 296 296 292 290 289 290 288 290 289 288 292 294 293 296 294 290 288 293 290 288 290 289 291 289 287 283
309 309 309 310 310 310 309 308 307 307 306 304 304 297 310 310 297 299 292 291 293 294 297 294 295 293 291 291 289 289 289 291 296 296 291 294 290 285 288 293 296 292 291 289 285 284 288
308 308 309 310 310 310 309 308 307 307 307 302 298 299 310 306 292 290 292 291 293 293 293 293 292 294 295 292 286 290 291 296 296 294 292 294 289 283 285 291 294 290 292 290 292 290 287
308 308 309 310 310 309 309 308 307 307 307 303 298 293 300 301 300 291 290 290 291 295 295 295 293 295 293 290 293 288 290 293 295 295 297 295 291 287 283 286 290 287 289 291 290 287 287
308 309 309 310 310 309 307 307 307 306 306 303 297 293 296 293 295 294 293 291 289 289 295 296 292 292 290 287 290 289 291 292 294 295 295 292 287 289 290 291 290 289 288 289 289 290 287
308 309 309 309 308 306 305 305 306 306 306 303 295 292 296 295 295 292 292 290 289 290 291 290 290 292 291 288 289 287 290 290 288 293 291 292 287 290 287 290 290 288 290 290 290 291 291
309 309 309 307 306 305 305 305 305 306 306 298 298 296 292 292 292 289 291 291 291 293 294 295 293 291 291 294 296 297 296 295 294 289 289 289 287 287 284 289 289 285 289 290 291 293 293
308 309 308 306 305 305 304 305 305 305 306 301 299 297 290 288 290 289 290 291 290 293 292 294 295 292 298 302 301 300 298 297 297 295 292 288 289 287 285 287 278 289 294 295 293 294 296
308 308 307 305 304 304 304 304 304 305 305 304 301 296 291 286 290 291 291 290 291 292 294 295 296 300 304 299 293 291 292 293 294 294 291 290 289 286 283 283 287 290 293 292 293 293 299
307 306 305 304 304 304 305 304 304 305 305 306 306 302 294 288 291 293 289 292 288 288 292 295 300 304 302 294 290 285 285 287 287 289 291 290 290 286 285 280 278 291 297 300 298 289 301
305 304 303 303 303 303 303 303 304 304 304 305 305 308 297 289 293 295 290 289 291 290 288 291 294 297 301 292 289 286 285 290 284 284 286 286 285 282 283 282 285 294 296 299 286 293 304
303 302 301 301 302 302 302 302 302 303 304 304 303 309 300 293 294 297 298 293 293 291 287 293 293 296 295 291 289 289 288 289 286 289 285 285 284 286 285 282 281 294 292 289 298 304 304
301 300 300 300 300 301 301 301 302 302 303 304 300 307 306 296 295 301 301 302 300 298 293 292 293 293 294 292 291 292 290 290 289 285 289 285 285 285 285 286 293 293 289 294 299 301 303